Campo, CA

5:48 AM PDT on May 27, 2017 (GMT -0700)
Campo

Weather History for KCZZ - December, 2014

Change the Weather History Date:

Tuesday, December 30, 2014

  Actual Average Record
Temperature  
Mean Temperature 37 °F 48 °F  
Max Temperature 48 °F 62 °F 78 °F (1998)
Min Temperature 25 °F 33 °F 14 °F (1969)
Degree Days  
Heating Degree Days 28 17  
Month to date heating degree days 473 522  
Since 1 July heating degree days 854 1092  
Cooling Degree Days 0 0  
Month to date cooling degree days 0 0  
Year to date cooling degree days 900 841  
Moisture  
Dew Point 36 °F    
Average Humidity 82    
Maximum Humidity 92    
Minimum Humidity 71    
Precipitation  
Precipitation 0.00 in 0.09 in 1.06 in (1951)
Month to date precipitation 3.08 2.18  
Year to date precipitation 8.13 15.64  
Since 1 July precipitation 5.37  
Snow  
Snow 0.00 in - - ()
Month to date snowfall 0.0  
Year to date snowfall 0.0  
Snow Depth 0.00 in    
Sea Level Pressure  
Sea Level Pressure 29.92 in    
Wind  
Wind Speed 7 mph (SW)    
Max Wind Speed 26 mph    
Max Gust Speed 30 mph    
T = Trace of Precipitation, MM = Missing Value Source: NWS Daily Summary

Daily Weather History Graph

Daily Weather History Graph

Search for Another Location

Airport or City:

Trip Planner

Search our weather history database for the weather conditions in past years. The results will help you decide how hot, cold, wet, or windy it might be!

Date:

Astronomy

Dec. 30, 2014 Rise Set
Actual Time 6:47 AM PST 4:49 PM PST
Civil Twilight 6:20 AM PST 5:16 PM PST
Nautical Twilight 5:49 AM PST 5:47 PM PST
Astronomical Twilight 5:19 AM PST 6:17 PM PST
Moon 12:54 PM PST (12/30) 1:26 AM PST (12/30)
Length of Visible Light 10h 56m
Length of Day
10h 02m
Waxing Gibbous, 72% of the Moon is Illuminated
Dec 30
Waxing Gibbous
Jan 4
Full
Jan 13
Last Quarter
Jan 20
New
Jan 26
First Quarter

Hourly Weather History & Observations

Time (PST) Temp. Windchill Dew Point Humidity Pressure Visibility Wind Dir Wind Speed Gust Speed Precip Events Conditions
12:52 AM 28.0 °F 21.7 °F 26.1 °F 92% 29.98 in - ENE 5.8 mph - N/A   Unknown
1:52 AM 26.1 °F 20.5 °F 25.0 °F 96% 29.98 in - NE 4.6 mph - N/A   Unknown
2:52 AM 28.9 °F - 27.0 °F 92% 29.96 in - Calm Calm - N/A   Unknown
3:52 AM 28.9 °F 25.2 °F 26.1 °F 89% 29.96 in - ENE 3.5 mph - N/A   Unknown
4:52 AM 28.9 °F - 27.0 °F 92% 29.96 in - Calm Calm - N/A   Unknown
5:52 AM 30.9 °F - 28.9 °F 92% 29.96 in - Calm Calm - N/A   Unknown
6:52 AM 33.1 °F - 30.0 °F 89% 29.98 in - Calm Calm - N/A   Unknown
7:52 AM 37.0 °F - 35.1 °F 93% 29.97 in - Calm Calm - N/A   Unknown
8:52 AM 45.0 °F 41.2 °F 41.0 °F 86% 29.96 in - SW 6.9 mph - N/A   Unknown
9:52 AM 46.9 °F - 41.0 °F 80% 29.96 in - WSW 10.4 mph - N/A   Unknown
10:52 AM 48.0 °F - 39.9 °F 74% 29.96 in - SW 17.3 mph 25.3 mph N/A   Unknown
11:52 AM 48.0 °F - 41.0 °F 77% 29.93 in - SW 21.9 mph 26.5 mph N/A   Unknown
12:52 PM 46.0 °F 39.3 °F 39.9 °F 79% 29.90 in - West 16.1 mph 24.2 mph N/A   Unknown
1:52 PM 46.9 °F - 39.0 °F 74% 29.88 in - SW 11.5 mph - N/A   Unknown
2:52 PM 45.0 °F 39.3 °F 41.0 °F 86% 29.88 in - WSW 11.5 mph - N/A   Unknown
3:52 PM 45.0 °F 38.5 °F 41.0 °F 86% 29.88 in - SW 13.8 mph - N/A   Unknown
4:52 PM 44.1 °F 37.7 °F 42.1 °F 93% 29.86 in - SW 12.7 mph - 0.01 in   Unknown
5:52 PM 44.1 °F 37.4 °F 41.0 °F 89% 29.87 in - WSW 13.8 mph - 0.03 in   Unknown
6:52 PM 43.0 °F 36.4 °F 39.9 °F 89% 29.88 in - WSW 12.7 mph - 0.02 in   Unknown
7:52 PM 42.1 °F 35.2 °F 41.0 °F 96% 29.86 in - SW 12.7 mph - 0.02 in   Unknown
8:52 PM 41.0 °F 33.9 °F 39.0 °F 93% 29.84 in - West 12.7 mph - 0.03 in   Unknown
9:52 PM 39.9 °F - 39.0 °F 97% 29.86 in - Calm Calm - 0.04 in   Unknown
10:52 PM 39.0 °F - 36.0 °F 89% 29.85 in - Calm Calm - 0.06 in   Unknown
11:52 PM 35.1 °F 27.4 °F 32.0 °F 89% 29.84 in - East 10.4 mph - 0.01 in   Unknown